Location: Haliburton Scout Reserve
(45.0900°N, 78.3200°W)
Time: 07:06:27
(UTC-05:00)

LilacSat-2 - Visible Passes

Search period start: 28 November 2023 00:00
Search period end: 08 December 2023 00:00
Orbit: 490 x 508 km, 97.5° (Epoch: 28 November)

Date Brightness Start Highest point End Pass type
(mag) Time Alt. Az. Time Alt. Az. Time Alt. Az.
28 Nov ? 06:13:45 10° NNE 06:17:24 51° E 06:21:02 10° S visible
28 Nov ? 18:28:00 10° SW 18:30:42 19° W 18:33:25 10° NW visible
29 Nov ? 05:54:04 10° NE 05:57:22 29° E 06:00:39 10° SSE visible
29 Nov ? 18:07:18 10° SSW 18:10:36 33° W 18:13:57 10° NNW visible
30 Nov ? 05:34:41 10° NE 05:37:16 18° E 05:39:50 10° SE visible
30 Nov ? 17:46:58 10° S 17:50:33 59° W 17:54:11 10° NNW visible
01 Dec ? 05:16:22 10° ENE 05:17:06 10° E 05:17:49 10° E visible
01 Dec ? 06:47:29 10° N 06:51:11 59° WNW 06:54:50 10° SSW visible
01 Dec ? 17:26:55 10° SSE 17:30:33 77° ENE 17:34:14 10° N visible
02 Dec ? 06:27:28 10° NNE 06:31:11 77° ESE 06:34:54 10° S visible
02 Dec ? 17:07:07 10° SE 17:10:35 42° ENE 17:14:05 10° N visible
02 Dec ? 18:42:34 10° WSW 18:44:32 14° W 18:46:30 10° WNW visible
03 Dec ? 06:07:33 10° NNE 06:11:08 42° E 06:14:41 10° S visible
03 Dec ? 18:21:22 10° SSW 18:24:20 23° W 18:27:19 10° NW visible
04 Dec ? 05:47:52 10° NE 05:51:00 25° E 05:54:05 10° SSE visible
04 Dec ? 18:00:44 10° S 18:04:10 39° W 18:07:39 10° NNW visible
05 Dec ? 05:28:35 10° NE 05:30:46 15° E 05:32:58 10° SE visible
05 Dec ? 07:01:10 10° N 07:04:41 41° WNW 07:08:11 10° SW visible
05 Dec ? 17:40:25 10° S 17:44:04 73° W 17:47:45 10° NNW visible
06 Dec ? 06:40:56 10° N 06:44:40 73° WNW 06:48:21 10° SSW visible
06 Dec ? 17:20:22 10° SSE 17:23:58 62° ENE 17:27:38 10° N visible
07 Dec ? 06:20:51 10° NNE 06:24:34 62° ESE 06:28:14 10° S visible
07 Dec ? 17:00:35 10° SE 17:03:56 35° ENE 17:07:20 10° N visible
07 Dec ? 18:35:22 10° SW 18:37:47 17° W 18:40:13 10° NW visible
